Columbia Owens, SC

8:59 AM EST on November 12, 2019 (GMT -0500)
Columbia Owens Downtown

Weather History for KCUB - September, 2019

Change the Weather History Date:

Tuesday, September 3, 2019

  Actual Average Record
Temperature  
Mean Temperature 83 °F 79 °F  
Max Temperature 95 °F 89 °F 99 °F (2010)
Min Temperature 71 °F 69 °F 62 °F (2017)
Degree Days  
Heating Degree Days 0 0  
Month to date heating degree days 0 0  
Since 1 July heating degree days 0 0  
Cooling Degree Days 18 14  
Month to date cooling degree days 53 42  
Year to date cooling degree days 2176 1860  
Growing Degree Days 32 (Base 50)    
Moisture  
Dew Point 69 °F    
Average Humidity 67    
Maximum Humidity 93    
Minimum Humidity 41    
Precipitation  
Precipitation 0.00 in 0.14 in 0.34 in (2012)
Month to date precipitation 0.48 0.42  
Year to date precipitation 23.66 32.27  
Sea Level Pressure  
Sea Level Pressure 29.97 in    
Wind  
Wind Speed 2 mph (NE)    
Max Wind Speed 9 mph    
Max Gust Speed 13 mph    
Visibility 10 miles    
Events      
T = Trace of Precipitation, MM = Missing Value Source: NWS Daily Summary

Daily Weather History Graph

Daily Weather History Graph

Search for Another Location

Airport or City:

Astronomy

Sep. 03, 2019 Rise Set
Actual Time 6:58 AM EDT 7:47 PM EDT
Civil Twilight 6:33 AM EDT 8:12 PM EDT
Nautical Twilight 6:03 AM EDT 8:42 PM EDT
Astronomical Twilight 5:32 AM EDT 9:13 PM EDT
Moon 11:37 AM EDT (9/3) 10:57 PM EDT (9/3)
Length of Visible Light 13h 39m
Length of Day
12h 48m
Waxing Crescent, 24% of the Moon is Illuminated
Sep 3
Waxing Crescent
Sep 5
First Quarter
Sep 14
Full
Sep 21
Last Quarter
Sep 28
New

Hourly Weather History & Observations

Time (EDT) Temp. Heat Index Dew Point Humidity Pressure Visibility Wind Dir Wind Speed Gust Speed Precip Events Conditions
12:53 AM 75.0 °F - 70.0 °F 84% 29.99 in 10.0 mi Calm Calm - N/A   Clear
1:53 AM 73.9 °F - 70.0 °F 87% 29.99 in 10.0 mi Calm Calm - N/A   Clear
2:53 AM 73.0 °F - 70.0 °F 90% 29.97 in 10.0 mi Calm Calm - N/A   Clear
3:53 AM 72.0 °F - 69.1 °F 91% 29.97 in 10.0 mi Calm Calm - N/A   Clear
4:53 AM 72.0 °F - 69.1 °F 91% 29.97 in 10.0 mi Calm Calm - N/A   Clear
5:53 AM 72.0 °F - 69.1 °F 91% 29.97 in 10.0 mi Calm Calm - N/A   Clear
6:53 AM 71.1 °F - 69.1 °F 93% 29.99 in 10.0 mi Calm Calm - N/A   Clear
7:53 AM 73.0 °F - 70.0 °F 90% 30.00 in 10.0 mi NNE 3.5 mph - N/A   Clear
8:53 AM 77.0 °F - 71.1 °F 82% 30.01 in 10.0 mi Variable 3.5 mph - N/A   Clear
9:53 AM 81.0 °F 84.9 °F 71.1 °F 72% 30.01 in 10.0 mi Variable 4.6 mph - N/A   Clear
10:53 AM 84.0 °F 89.0 °F 71.1 °F 65% 30.01 in 10.0 mi NE 4.6 mph - N/A   Clear
11:53 AM 87.1 °F 92.0 °F 70.0 °F 57% 30.01 in 10.0 mi Variable 6.9 mph - N/A   Clear
12:53 PM 89.1 °F 92.9 °F 68.0 °F 50% 29.99 in 10.0 mi Variable 4.6 mph - N/A   Scattered Clouds
1:53 PM 90.0 °F 92.8 °F 66.9 °F 46% 29.98 in 10.0 mi ENE 5.8 mph - N/A   Mostly Cloudy
2:53 PM 91.0 °F 94.3 °F 66.9 °F 45% 29.96 in 10.0 mi Variable 3.5 mph - N/A   Mostly Cloudy
3:53 PM 91.9 °F 94.5 °F 66.0 °F 42% 29.95 in 10.0 mi Variable 3.5 mph - N/A   Partly Cloudy
4:53 PM 93.9 °F 97.0 °F 66.0 °F 40% 29.93 in 10.0 mi Variable 3.5 mph - N/A   Partly Cloudy
5:53 PM 93.0 °F 95.9 °F 66.0 °F 41% 29.93 in 10.0 mi Variable 5.8 mph - N/A   Partly Cloudy
6:53 PM 91.0 °F 94.3 °F 66.9 °F 45% 29.93 in 10.0 mi Calm Calm - N/A   Clear
7:53 PM 88.0 °F 90.7 °F 66.9 °F 49% 29.95 in 10.0 mi Calm Calm - N/A   Clear
8:53 PM 84.0 °F 87.0 °F 68.0 °F 58% 29.95 in 10.0 mi Calm Calm - N/A   Clear
9:53 PM 81.0 °F 83.8 °F 68.0 °F 65% 29.96 in 10.0 mi Calm Calm - N/A   Clear
10:53 PM 79.0 °F - 68.0 °F 69% 29.97 in 10.0 mi Calm Calm - N/A   Clear
11:53 PM 78.1 °F - 68.0 °F 71% 29.97 in 10.0 mi Calm Calm - N/A   Clear